EW9339 Weather Reports


Display with metric or nautical units.
time (UTC)temp
F
wind
direction
speed
MPH
gust
MPH
rain 1hr
in
rain 24hr
in
rain mn
in
humidity
%
barometer
mb
20260502123029 59 339 8.0 0.0 0.00 0.00 0.05 84 1012.5
20260502121551 59 347 8.0 0.0 0.00 0.00 0.05 84 1012.6
20260502114507 59 330 5.0 0.0 0.00 0.00 0.05 83 1012.8
20260502113034 59 337 4.0 0.0 0.00 0.00 0.05 82 1012.9
20260502111604 59 338 4.0 0.0 0.00 0.00 0.05 81 1012.9
20260502110056 59 346 5.0 0.0 0.00 0.00 0.05 81 1013.0
20260502104519 60 336 7.0 0.0 0.00 0.00 0.05 81 1013.1
20260502103108 61 337 5.0 0.0 0.00 0.00 0.05 81 1013.1
20260502101502 62 232 2.0 0.0 0.00 0.00 0.05 83 1013.2
20260502091526 58 157 2.0 0.0 0.00 0.00 0.05 86 1013.5
20260502090114 58 221 2.0 0.0 0.00 0.00 0.04 85 1013.8
20260502071525 56 51 2.0 0.0 0.00 0.00 0.00 87 1013.4
20260502070010 56 80 2.0 0.0 0.00 0.00 0.00 87 1013.5
20260502064626 56 115 2.0 0.0 0.00 0.00 0.00 87 1013.5
20260502063035 56 57 2.0 0.0 0.00 0.00 0.00 87 1013.6
20260502061602 56 212 1.0 0.0 0.00 0.00 0.00 87 1013.6
20260502060053 56 131 2.0 0.0 0.00 0.00 0.00 87 1013.5
20260502054545 56 76 1.0 0.0 0.00 0.00 0.00 87 1013.4
20260502053036 56 178 1.0 0.0 0.00 0.00 0.00 87 1013.4
20260502051543 56 93 1.0 0.0 0.00 0.00 0.00 87 1013.3
20260502050029 56 34 1.0 0.0 0.00 0.00 0.00 87 1013.2
20260502044555 56 265 1.0 0.0 0.00 0.00 0.00 87 1013.2
20260502043021 55 265 2.0 0.0 0.00 0.00 0.00 87 1013.1
20260502041514 56 120 2.0 0.0 0.00 0.00 0.00 87 1013.1
20260502040052 56 101 2.0 0.0 0.00 0.00 0.00 87 1013.2
20260502034523 56 88 2.0 0.0 0.00 0.00 0.00 86 1013.2
20260502033053 56 120 2.0 0.0 0.00 0.00 0.00 86 1013.3
20260502031518 56 78 1.0 0.0 0.00 0.00 0.00 86 1013.3
20260502030008 56 111 2.0 0.0 0.00 0.00 0.00 86 1013.4
20260502024606 56 9 1.0 0.0 0.00 0.00 0.00 86 1013.6
20260502023101 57 137 1.0 0.0 0.00 0.00 0.00 86 1013.7
20260502021514 57 26 1.0 0.0 0.00 0.00 0.00 86 1013.8
20260502020055 57 9 1.0 0.0 0.00 0.00 0.00 86 1014.0
20260502014526 57 93 2.0 0.0 0.00 0.00 0.00 86 1014.1
20260502013009 58 129 1.0 0.0 0.00 0.00 0.00 86 1014.1
20260502011606 58 158 1.0 0.0 0.00 0.00 0.00 86 1014.2
20260502010021 58 109 3.0 0.0 0.00 0.00 0.00 87 1014.3
20260502004600 58 165 2.0 0.0 0.00 0.00 0.00 87 1014.5
20260502003006 58 173 2.0 0.0 0.00 0.00 0.00 87 1014.5
20260502001523 58 111 4.0 0.0 0.00 0.00 0.00 87 1014.5
20260502000041 59 110 3.0 0.0 0.00 0.00 0.00 87 1014.7
20260501234524 59 128 4.0 0.0 0.00 0.00 0.00 86 1015.0
20260501233014 59 129 3.0 0.0 0.00 0.00 0.00 85 1014.9
20260501231607 59 178 1.0 0.0 0.00 0.00 0.00 85 1015.4
20260501230027 59 9 1.0 0.0 0.00 0.00 0.00 85 1015.5
20260501224513 59 47 1.0 0.0 0.00 0.00 0.00 85 1015.4
20260501223055 59 93 1.0 0.0 0.00 0.00 0.00 84 1015.6
20260501221528 59 44 1.0 0.0 0.00 0.00 0.00 84 1015.7
20260501220050 59 321 1.0 0.0 0.00 0.00 0.00 84 1015.8
20260501214535 59 334 2.0 0.0 0.00 0.00 0.00 84 1015.8
20260501213004 60 17 4.0 0.0 0.00 0.00 0.00 83 1016.0
20260501211527 60 342 4.0 0.0 0.00 0.00 0.00 82 1016.1
20260501210028 60 18 1.0 0.0 0.00 0.00 0.00 81 1016.0
20260501204530 60 301 2.0 0.0 0.00 0.00 0.00 81 1016.0
20260501203031 60 34 2.0 0.0 0.00 0.00 0.00 81 1015.9
20260501201550 60 259 3.0 0.0 0.00 0.00 0.00 82 1015.9
20260501200115 60 178 2.0 0.0 0.00 0.00 0.00 82 1015.9
20260501194537 60 319 2.0 0.0 0.00 0.00 0.00 82 1015.7
20260501193050 60 93 2.0 0.0 0.00 0.00 0.00 83 1015.7
20260501191602 60 296 2.0 0.0 0.00 0.00 0.00 83 1015.6
20260501190037 60 344 4.0 0.0 0.00 0.00 0.00 83 1015.5
20260501184534 60 11 4.0 0.0 0.00 0.00 0.00 83 1015.4
20260501183038 60 336 3.0 0.0 0.00 0.00 0.00 83 1015.6
20260501181504 60 344 4.0 0.0 0.00 0.00 0.00 83 1015.7
20260501180104 60 347 5.0 0.0 0.00 0.00 0.00 83 1015.5
20260501174510 60 341 5.0 0.0 0.00 0.00 0.00 83 1015.3
20260501173022 60 347 3.0 0.0 0.00 0.00 0.00 84 1015.5
20260501171536 60 282 6.0 0.0 0.00 0.00 0.00 84 1015.6
20260501170114 60 13 4.0 0.0 0.00 0.00 0.00 84 1015.3
20260501164612 60 344 6.0 0.0 0.00 0.00 0.00 84 1015.2
20260501163030 60 328 5.0 0.0 0.00 0.00 0.00 84 1015.5
20260501161610 60 342 4.0 0.0 0.00 0.00 0.00 84 1015.6
20260501160057 60 319 7.0 0.0 0.00 0.00 0.00 84 1015.6
20260501154520 60 332 6.0 0.0 0.00 0.00 0.00 84 1015.8
20260501153105 60 30 5.0 0.0 0.00 0.00 0.00 84 1015.9
20260501151532 60 22 5.0 0.0 0.00 0.00 0.00 84 1015.8
20260501150031 60 321 4.0 0.0 0.00 0.00 0.00 84 1016.1